Air Quality Table

TIMESTAMP NO2 SO2 PM10 PM2.5 CO TEMP HUM AIRPRES WS WD NO
2022-06-26 09:00 47.96 µg/m3 3.16 µg/m3 N/A N/A N/A 31.23 °C 32.71 % 1,012.55 mbar 3.26 m/s 187.26 Deg 39.72 µg/m3
2022-06-26 08:00 69.72 µg/m3 1.83 µg/m3 N/A N/A N/A 28.66 °C 52.97 % 1,012.61 mbar 1.56 m/s 200.09 Deg 49.14 µg/m3
2022-06-26 07:00 57.19 µg/m3 2 µg/m3 N/A N/A N/A 26.15 °C 55.14 % 1,012.31 mbar 0.96 m/s 201.33 Deg 32.12 µg/m3
2022-06-26 06:00 55.94 µg/m3 2.35 µg/m3 N/A N/A N/A 24.5 °C 67.45 % 1,011.79 mbar 1 m/s 206.77 Deg 43.44 µg/m3
2022-06-26 05:00 29.27 µg/m3 0.7 µg/m3 N/A N/A N/A 26.14 °C 73.7 % 1,011.39 mbar 0.52 m/s 150.12 Deg 1.7 µg/m3
2022-06-26 04:00 41.41 µg/m3 0.99 µg/m3 N/A N/A N/A 26.59 °C 62.2 % 1,011.13 mbar 0.57 m/s 155.93 Deg 1.79 µg/m3
2022-06-26 03:00 66.3 µg/m3 1.64 µg/m3 N/A N/A N/A 25.93 °C 54.23 % 1,010.99 mbar 2.35 m/s 206.67 Deg 12.13 µg/m3
2022-06-26 02:00 68.4 µg/m3 2.07 µg/m3 N/A N/A N/A 26.04 °C 46.01 % 1,011.24 mbar 1.39 m/s 199.46 Deg 50.07 µg/m3
2022-06-26 01:00 54.99 µg/m3 1.77 µg/m3 N/A N/A N/A 26.57 °C 53.25 % 1,011.50 mbar 0.8 m/s 103.27 Deg 29.61 µg/m3
2022-06-26 00:00 64.23 µg/m3 1.82 µg/m3 N/A N/A N/A 27.06 °C 58.34 % 1,011.76 mbar 0.68 m/s 256.53 Deg 32.27 µg/m3
2022-06-25 23:00 48.69 µg/m3 2 µg/m3 N/A N/A N/A 27.25 °C 66.52 % 1,012.09 mbar 0.57 m/s 136.15 Deg 19.93 µg/m3
2022-06-25 22:00 69.77 µg/m3 2.35 µg/m3 N/A N/A N/A 27.72 °C 65.67 % 1,012.15 mbar 0.6 m/s 78.54 Deg 23.96 µg/m3
2022-06-25 21:00 34.35 µg/m3 2.69 µg/m3 N/A N/A N/A 28.99 °C 50.25 % 1,012.01 mbar 0.65 m/s 71.71 Deg 19.99 µg/m3
2022-06-25 20:00 27.08 µg/m3 1.8 µg/m3 N/A N/A N/A 30.14 °C 28.06 % 1,011.60 mbar 1.98 m/s 206.53 Deg 3.49 µg/m3
2022-06-25 19:00 32.12 µg/m3 2.2 µg/m3 N/A N/A N/A 31.19 °C 29.01 % 1,011.51 mbar 2.46 m/s 194.55 Deg 7.93 µg/m3
2022-06-25 18:00 37.58 µg/m3 2.18 µg/m3 N/A N/A N/A 32.46 °C 27.42 % 1,011.50 mbar 2.24 m/s 185.39 Deg 11.05 µg/m3
2022-06-25 17:00 33.34 µg/m3 2.73 µg/m3 N/A N/A N/A 33.09 °C 25.85 % 1,011.58 mbar 2.39 m/s 181.98 Deg 14.84 µg/m3
2022-06-25 16:00 56.2 µg/m3 4.66 µg/m3 N/A N/A N/A 33.58 °C 27.54 % 1,011.99 mbar 2.08 m/s 189.7 Deg 19.27 µg/m3
2022-06-25 15:00 40.35 µg/m3 2.69 µg/m3 N/A N/A N/A 34.49 °C 22.23 % 1,012.20 mbar 1.14 m/s 231.09 Deg 15.37 µg/m3
2022-06-25 14:00 26.84 µg/m3 1.94 µg/m3 N/A N/A N/A 31.3 °C 39.12 % 1,012.55 mbar 0.93 m/s 211.93 Deg 10.07 µg/m3
2022-06-25 13:00 36.72 µg/m3 1.11 µg/m3 N/A N/A N/A 29.24 °C 67.39 % 1,012.94 mbar 0.82 m/s 201.71 Deg 15.1 µg/m3
2022-06-25 12:00 35.43 µg/m3 1.71 µg/m3 N/A N/A N/A 28.46 °C 68.56 % 1,013.23 mbar 0.96 m/s 172.21 Deg 15.16 µg/m3
2022-06-25 11:00 30.17 µg/m3 2 µg/m3 N/A N/A N/A 28.4 °C 61.68 % 1,013.30 mbar 1.15 m/s 171.52 Deg 9.1 µg/m3
2022-06-25 10:00 49.39 µg/m3 2.99 µg/m3 N/A N/A N/A 28.03 °C 55.8 % 1,012.85 mbar 1.11 m/s 126.52 Deg 25.69 µg/m3
2022-06-25 09:00 74.1 µg/m3 3.21 µg/m3 N/A N/A N/A 28.65 °C 45.38 % 1,012.62 mbar 0.82 m/s 36.04 Deg 66.27 µg/m3
2022-06-25 08:00 97.29 µg/m3 6.01 µg/m3 N/A N/A N/A 28.4 °C 33.36 % 1,012.40 mbar 0.41 m/s 130.52 Deg 170.54 µg/m3
2022-06-25 07:00 65.97 µg/m3 3.9 µg/m3 N/A N/A N/A 25.61 °C 43.15 % 1,012.11 mbar 1.04 m/s 193.73 Deg 114.55 µg/m3
2022-06-25 06:00 61.71 µg/m3 4.04 µg/m3 N/A N/A N/A 24.71 °C 46.67 % 1,011.69 mbar 1.42 m/s 193.64 Deg 126.02 µg/m3
2022-06-25 05:00 48.99 µg/m3 2.06 µg/m3 N/A N/A N/A 24.63 °C 48.14 % 1,011.39 mbar 2.03 m/s 209.63 Deg 41.15 µg/m3
2022-06-25 04:00 43.17 µg/m3 1.29 µg/m3 N/A N/A N/A 25.01 °C 52.4 % 1,011.23 mbar 1.88 m/s 204.38 Deg 21.9 µg/m3
2022-06-25 03:00 45.31 µg/m3 1.09 µg/m3 N/A N/A N/A 25.49 °C 55.49 % 1,011.33 mbar 1.48 m/s 207.84 Deg 11 µg/m3
2022-06-25 02:00 46.33 µg/m3 0.9 µg/m3 N/A N/A N/A 26.36 °C 53.08 % 1,011.46 mbar 1.21 m/s 203.5 Deg 10.91 µg/m3
2022-06-25 01:00 14.49 µg/m3 0.28 µg/m3 N/A N/A N/A 27.43 °C 51.42 % 1,011.74 mbar 1.08 m/s 308.52 Deg 0.2 µg/m3
2022-06-25 00:00 47.82 µg/m3 0.98 µg/m3 N/A N/A N/A 27.12 °C 60.95 % 1,011.81 mbar 0.71 m/s 191.49 Deg 22.96 µg/m3
2022-06-24 23:00 67.46 µg/m3 1.47 µg/m3 N/A N/A N/A 27.67 °C 57.25 % 1,011.79 mbar 0.93 m/s 179.32 Deg 53.85 µg/m3
2022-06-24 22:00 59.07 µg/m3 1.36 µg/m3 N/A N/A N/A 28.75 °C 46.34 % 1,011.71 mbar 1.04 m/s 215.78 Deg 25.87 µg/m3
2022-06-24 21:00 66.6 µg/m3 1.63 µg/m3 N/A N/A N/A 28.18 °C 56.57 % 1,011.35 mbar 1.07 m/s 228.62 Deg 61.02 µg/m3
2022-06-24 20:00 49.72 µg/m3 4.11 µg/m3 N/A N/A N/A 27.76 °C 63.68 % 1,011.10 mbar 0.63 m/s 231.11 Deg 37.34 µg/m3
2022-06-24 19:00 38.32 µg/m3 0.96 µg/m3 N/A N/A N/A 29.64 °C 54.7 % 1,010.79 mbar 0.71 m/s 232.38 Deg 12.04 µg/m3
2022-06-24 18:00 12.29 µg/m3 0.9 µg/m3 N/A N/A N/A 31.72 °C 41.41 % 1,010.88 mbar 0.72 m/s 198.78 Deg 1.3 µg/m3
2022-06-24 17:00 26.36 µg/m3 1.39 µg/m3 N/A N/A N/A 33.39 °C 33.46 % 1,010.89 mbar 0.82 m/s 247.34 Deg 5.74 µg/m3
2022-06-24 16:00 27.22 µg/m3 1.36 µg/m3 N/A N/A N/A 35.86 °C 14.49 % 1,011.27 mbar 1.65 m/s 270.13 Deg 6.53 µg/m3
2022-06-24 15:00 27.95 µg/m3 1.27 µg/m3 N/A N/A N/A 35.35 °C 20.88 % 1,011.71 mbar 0.86 m/s 232.94 Deg 8.22 µg/m3
2022-06-24 14:00 30.6 µg/m3 1.15 µg/m3 N/A N/A N/A 33.63 °C 29.1 % 1,011.99 mbar 0.97 m/s 16.26 Deg 10.36 µg/m3
2022-06-24 13:00 24.76 µg/m3 1.44 µg/m3 N/A N/A N/A 31.99 °C 39.03 % 1,012.16 mbar 1.25 m/s 254.17 Deg 7.43 µg/m3
2022-06-24 12:00 20.09 µg/m3 0.18 µg/m3 N/A N/A N/A 31.24 °C 44.82 % 1,012.33 mbar 0.86 m/s 220.24 Deg 5.17 µg/m3
2022-06-24 11:00 16.02 µg/m3 1.19 µg/m3 N/A N/A N/A 29.6 °C 47.91 % 1,012.38 mbar 2.4 m/s 343.12 Deg 3.93 µg/m3
2022-06-24 10:00 26.95 µg/m3 1.18 µg/m3 N/A N/A N/A 29.8 °C 46.14 % 1,012.28 mbar 1.37 m/s 262.03 Deg 7.23 µg/m3
2022-06-24 09:00 36.7 µg/m3 1.19 µg/m3 N/A N/A N/A 30.24 °C 44.64 % 1,012.07 mbar 0.72 m/s 100.29 Deg 9.16 µg/m3
2022-06-24 08:00 79.75 µg/m3 2.18 µg/m3 N/A N/A N/A 29.63 °C 32.04 % 1,011.79 mbar 0.74 m/s 201.18 Deg 37.47 µg/m3
2022-06-24 07:00 92.96 µg/m3 3.43 µg/m3 N/A N/A N/A 28.31 °C 22.63 % 1,011.41 mbar 1.4 m/s 209.43 Deg 52.74 µg/m3
2022-06-24 06:00 97.28 µg/m3 3.27 µg/m3 N/A N/A N/A 26.41 °C 27.6 % 1,011.16 mbar 1.69 m/s 198.41 Deg 65.66 µg/m3
2022-06-24 05:00 74.35 µg/m3 2.36 µg/m3 N/A N/A N/A 26.85 °C 27.82 % 1,011.07 mbar 1.9 m/s 206.93 Deg 26.04 µg/m3
2022-06-24 04:00 36.92 µg/m3 1.47 µg/m3 N/A N/A N/A 27.18 °C 26.64 % 1,011.10 mbar 2.82 m/s 205.96 Deg 5.28 µg/m3
2022-06-24 03:00 30.59 µg/m3 1.67 µg/m3 N/A N/A N/A 26.62 °C 29.48 % 1,011.49 mbar 2.85 m/s 200.53 Deg 1.1 µg/m3
2022-06-24 02:00 32.01 µg/m3 1.71 µg/m3 N/A N/A N/A 25.81 °C 36.55 % 1,011.99 mbar 3.38 m/s 196.9 Deg 0.76 µg/m3
2022-06-24 01:00 45.04 µg/m3 1.51 µg/m3 N/A N/A N/A 25.94 °C 46.92 % 1,012.50 mbar 2.49 m/s 206.8 Deg 4.28 µg/m3
2022-06-24 00:00 37.67 µg/m3 0.98 µg/m3 N/A N/A N/A 26.31 °C 54.6 % 1,012.85 mbar 2.05 m/s 207.68 Deg 1.9 µg/m3
2022-06-23 23:00 25.48 µg/m3 1.06 µg/m3 N/A N/A N/A 27.18 °C 54.82 % 1,013.19 mbar 1.41 m/s 246.58 Deg 1.71 µg/m3
2022-06-23 22:00 21.09 µg/m3 1.17 µg/m3 N/A N/A N/A 27.88 °C 49.56 % 1,013.12 mbar 0.82 m/s 250.52 Deg 3.01 µg/m3
2022-06-23 21:00 53.24 µg/m3 1.16 µg/m3 N/A N/A N/A 28.36 °C 48.08 % 1,012.68 mbar 0.69 m/s 172.54 Deg 8.76 µg/m3
2022-06-23 20:00 33.35 µg/m3 1.55 µg/m3 N/A N/A N/A 30.04 °C 31.5 % 1,011.97 mbar 2.19 m/s 201.98 Deg 5.62 µg/m3
2022-06-23 19:00 23.28 µg/m3 1.73 µg/m3 N/A N/A N/A 30.79 °C 29.41 % 1,011.78 mbar 4.05 m/s 216.68 Deg 17.21 µg/m3
2022-06-23 18:00 30.25 µg/m3 2.52 µg/m3 N/A N/A N/A 31.44 °C 29.75 % 1,011.67 mbar 3.51 m/s 220.13 Deg 14.62 µg/m3
2022-06-23 17:00 37.24 µg/m3 2.95 µg/m3 N/A N/A N/A 31.5 °C 31.3 % 1,012.10 mbar 4.27 m/s 239.29 Deg 28.17 µg/m3
2022-06-23 16:00 25.34 µg/m3 2.14 µg/m3 N/A N/A N/A 31.53 °C 30.67 % 1,012.52 mbar 4.53 m/s 264.51 Deg 10.99 µg/m3
2022-06-23 15:00 37.68 µg/m3 3.44 µg/m3 N/A N/A N/A 30.82 °C 34.56 % 1,012.69 mbar 5.18 m/s 242.93 Deg 47.75 µg/m3
2022-06-23 14:00 60.63 µg/m3 5.91 µg/m3 N/A N/A N/A 30.56 °C 36.58 % 1,012.99 mbar 5.3 m/s 242.51 Deg 64.69 µg/m3
2022-06-23 13:00 74.41 µg/m3 9.59 µg/m3 N/A N/A N/A 30.95 °C 32.95 % 1,013.00 mbar 5.17 m/s 228.48 Deg 105.79 µg/m3
2022-06-23 12:00 67.06 µg/m3 7.78 µg/m3 N/A N/A N/A 31.52 °C 24.97 % 1,013.05 mbar 5.04 m/s 239.8 Deg 66.45 µg/m3
2022-06-23 11:00 70.98 µg/m3 8.26 µg/m3 N/A N/A N/A 30.88 °C 30.42 % 1,012.99 mbar 4.24 m/s 219.53 Deg 108.23 µg/m3
2022-06-23 10:00 59.85 µg/m3 4.61 µg/m3 N/A N/A N/A 30.04 °C 36.16 % 1,013.08 mbar 3.46 m/s 245.06 Deg 61.96 µg/m3
2022-06-23 09:00 54.95 µg/m3 3.77 µg/m3 N/A N/A N/A 29.25 °C 38.11 % 1,013.09 mbar 3.27 m/s 237.78 Deg 46.86 µg/m3
2022-06-23 08:00 69.16 µg/m3 2.69 µg/m3 N/A N/A N/A 27.8 °C 43.83 % 1,012.87 mbar 2.53 m/s 231.38 Deg 51.04 µg/m3
2022-06-23 07:00 78.82 µg/m3 3.49 µg/m3 N/A N/A N/A 26 °C 43.69 % 1,012.44 mbar 2.01 m/s 206.9 Deg 26.33 µg/m3
2022-06-23 06:00 84.91 µg/m3 3.37 µg/m3 N/A N/A N/A 24.78 °C 45.26 % 1,012.14 mbar 2.32 m/s 204.29 Deg 41.44 µg/m3
2022-06-23 05:00 51.79 µg/m3 1.43 µg/m3 N/A N/A N/A 24.56 °C 46.18 % 1,011.73 mbar 1.93 m/s 201.31 Deg 4.5 µg/m3
2022-06-23 04:00 41.9 µg/m3 1.67 µg/m3 N/A N/A N/A 24.41 °C 45.04 % 1,011.22 mbar 2.43 m/s 199.85 Deg 4.43 µg/m3
2022-06-23 03:00 38.67 µg/m3 1.77 µg/m3 N/A N/A N/A 24.69 °C 50.1 % 1,011.35 mbar 2.04 m/s 206.97 Deg 4.66 µg/m3
2022-06-23 02:00 63.29 µg/m3 1.31 µg/m3 N/A N/A N/A 25.19 °C 49.09 % 1,011.52 mbar 1.46 m/s 203.6 Deg 14.76 µg/m3
2022-06-23 01:00 48.99 µg/m3 1.23 µg/m3 N/A N/A N/A 25.77 °C 45.45 % 1,011.79 mbar 1.07 m/s 193.63 Deg 7.08 µg/m3
2022-06-23 00:00 51.17 µg/m3 0.95 µg/m3 N/A N/A N/A 26.37 °C 41.05 % 1,012.15 mbar 1.55 m/s 202.8 Deg 2.02 µg/m3
2022-06-22 23:00 48.35 µg/m3 0.93 µg/m3 N/A N/A N/A 26.52 °C 48.95 % 1,012.44 mbar 2.39 m/s 222.07 Deg 12.2 µg/m3
2022-06-22 22:00 32.05 µg/m3 0.39 µg/m3 N/A N/A N/A 26.84 °C 46.47 % 1,012.44 mbar 2.61 m/s 220.89 Deg 1.28 µg/m3
2022-06-22 21:00 34.04 µg/m3 0.42 µg/m3 N/A N/A N/A 27 °C 50.06 % 1,012.08 mbar 2.04 m/s 219.56 Deg 5.62 µg/m3
2022-06-22 20:00 23.15 µg/m3 1.16 µg/m3 N/A N/A N/A 27.53 °C 45.57 % 1,011.83 mbar 3.1 m/s 244.29 Deg 1.39 µg/m3
2022-06-22 19:00 10.6 µg/m3 1.06 µg/m3 N/A N/A N/A 28.77 °C 36.36 % 1,011.71 mbar 4.3 m/s 264.88 Deg 2.63 µg/m3
2022-06-22 18:00 15.52 µg/m3 0.94 µg/m3 N/A N/A N/A 29.9 °C 33.26 % 1,011.63 mbar 3.88 m/s 254.42 Deg 2.19 µg/m3
2022-06-22 17:00 9.73 µg/m3 1.16 µg/m3 N/A N/A N/A 30.13 °C 31.55 % 1,011.83 mbar 3.65 m/s 257.47 Deg 2.25 µg/m3
2022-06-22 16:00 63.78 µg/m3 4.29 µg/m3 N/A N/A N/A 29.99 °C 34.23 % 1,012.45 mbar 4.1 m/s 244.46 Deg 123.89 µg/m3
2022-06-22 15:00 33.11 µg/m3 1.76 µg/m3 N/A N/A N/A 30.09 °C 36.17 % 1,012.47 mbar 3.88 m/s 255.39 Deg 38.42 µg/m3
2022-06-22 14:00 37.83 µg/m3 1.9 µg/m3 N/A N/A N/A 29.71 °C 38.31 % 1,012.27 mbar 4.27 m/s 221.59 Deg 33.47 µg/m3
2022-06-22 13:00 16.23 µg/m3 1.04 µg/m3 N/A N/A N/A 28.95 °C 44.5 % 1,012.39 mbar 5.19 m/s 213.73 Deg 15.55 µg/m3
2022-06-22 12:00 21.64 µg/m3 0.93 µg/m3 N/A N/A N/A 29.26 °C 39.07 % 1,012.61 mbar 5.83 m/s 228.68 Deg 22.89 µg/m3
2022-06-22 11:00 45.3 µg/m3 1.35 µg/m3 N/A N/A N/A 29.35 °C 37.68 % 1,012.74 mbar 4.52 m/s 220.45 Deg 40.98 µg/m3
2022-06-22 10:00 27.92 µg/m3 1.6 µg/m3 N/A N/A N/A 29.07 °C 35.84 % 1,012.64 mbar 3.54 m/s 271.17 Deg 15.05 µg/m3
2022-06-22 09:00 62.01 µg/m3 3.65 µg/m3 N/A N/A N/A 28 °C 41.74 % 1,012.46 mbar 3.89 m/s 235.33 Deg 132.59 µg/m3
2022-06-22 08:00 56.35 µg/m3 0.42 µg/m3 N/A N/A N/A 26.31 °C 57.54 % 1,012.26 mbar 0.63 m/s 166.41 Deg 23.13 µg/m3
2022-06-22 07:00 67.35 µg/m3 1.24 µg/m3 N/A N/A N/A 24.98 °C 60.21 % 1,011.67 mbar 0.26 m/s 251.03 Deg 22.33 µg/m3
2022-06-22 06:00 64.9 µg/m3 -0.9 µg/m3 N/A N/A N/A 23.76 °C 63.18 % 1,011.36 mbar 1.42 m/s 197.53 Deg 24.35 µg/m3
2022-06-22 05:00 43.56 µg/m3 -0.5 µg/m3 N/A N/A N/A 23.39 °C 66.7 % 1,011.22 mbar 1.59 m/s 201.43 Deg 4.18 µg/m3
2022-06-22 04:00 30.53 µg/m3 0.1 µg/m3 N/A N/A N/A 23.44 °C 76.27 % 1,011.23 mbar 2.24 m/s 206.63 Deg 4.12 µg/m3
2022-06-22 03:00 26.83 µg/m3 0.57 µg/m3 N/A N/A N/A 24.11 °C 78.96 % 1,011.65 mbar 1.68 m/s 198.82 Deg 2.28 µg/m3
2022-06-22 02:00 7.13 µg/m3 0.64 µg/m3 N/A N/A N/A 24.47 °C 76.65 % 1,011.97 mbar 1.82 m/s 245.86 Deg 1.5 µg/m3
2022-06-22 01:00 15.96 µg/m3 0.4 µg/m3 N/A N/A N/A 24.4 °C 76.06 % 1,012.37 mbar 1.41 m/s 203 Deg 0.27 µg/m3
2022-06-22 00:00 9.98 µg/m3 0.29 µg/m3 N/A N/A N/A 24.68 °C 74.66 % 1,012.81 mbar 1.95 m/s 202.49 Deg 0.04 µg/m3
2022-06-21 23:00 18.12 µg/m3 0.6 µg/m3 N/A N/A N/A 24.89 °C 72.46 % 1,013.06 mbar 2.09 m/s 197.17 Deg 1 µg/m3
2022-06-21 22:00 31.99 µg/m3 0.83 µg/m3 N/A N/A N/A 25.24 °C 67.91 % 1,013.22 mbar 2.96 m/s 211.38 Deg 3.4 µg/m3
2022-06-21 21:00 17.76 µg/m3 0.85 µg/m3 N/A N/A N/A 25.57 °C 63.11 % 1,013.14 mbar 3.45 m/s 221.03 Deg 1.06 µg/m3
2022-06-21 20:00 11.99 µg/m3 0.99 µg/m3 N/A N/A N/A 25.97 °C 59.66 % 1,013.01 mbar 4.34 m/s 222.73 Deg 0.5 µg/m3
2022-06-21 19:00 13.13 µg/m3 0.67 µg/m3 N/A N/A N/A 27.28 °C 50.5 % 1,013.01 mbar 3.8 m/s 242.53 Deg 1.88 µg/m3
2022-06-21 18:00 17.46 µg/m3 1.09 µg/m3 N/A N/A N/A 28.2 °C 45.26 % 1,012.91 mbar 4.5 m/s 226.16 Deg 7.9 µg/m3
2022-06-21 17:00 28.81 µg/m3 1.26 µg/m3 N/A N/A N/A 28.7 °C 42.74 % 1,013.13 mbar 4.54 m/s 259.63 Deg 15.59 µg/m3
2022-06-21 16:00 51.43 µg/m3 1.96 µg/m3 N/A N/A N/A 29.54 °C 39.38 % 1,013.49 mbar 4.6 m/s 239.23 Deg 42.76 µg/m3
2022-06-21 15:00 41.6 µg/m3 1.7 µg/m3 N/A N/A N/A 29.85 °C 38.17 % 1,013.64 mbar 3.09 m/s 252.23 Deg 35.49 µg/m3
2022-06-21 14:00 49.63 µg/m3 1.66 µg/m3 N/A N/A N/A 29.22 °C 43.29 % 1,013.93 mbar 3.57 m/s 243.28 Deg 32.31 µg/m3
2022-06-21 13:00 23.15 µg/m3 0.57 µg/m3 N/A N/A N/A 29.45 °C 44.81 % 1,013.96 mbar 2.56 m/s 276.73 Deg 5.52 µg/m3
2022-06-21 12:00 14.65 µg/m3 0.09 µg/m3 N/A N/A N/A 28.45 °C 56.38 % 1,014.21 mbar 0.98 m/s 188.78 Deg 2.38 µg/m3
2022-06-21 11:00 18.64 µg/m3 0.17 µg/m3 N/A N/A N/A 27.31 °C 63.09 % 1,014.57 mbar 1.01 m/s 249.78 Deg 3.52 µg/m3
2022-06-21 10:00 23.73 µg/m3 0.1 µg/m3 N/A N/A N/A 26.7 °C 65.83 % 1,014.82 mbar 0.88 m/s 277.15 Deg 6.14 µg/m3
2022-06-21 09:00 37.46 µg/m3 0.16 µg/m3 N/A N/A N/A 26.7 °C 59.96 % 1,014.81 mbar 0.83 m/s 310.39 Deg 28.31 µg/m3
2022-06-21 08:00 35.26 µg/m3 0.22 µg/m3 N/A N/A N/A 25.76 °C 57.97 % 1,014.42 mbar 0.67 m/s 296.31 Deg 11.2 µg/m3
2022-06-21 07:00 94.82 µg/m3 0.68 µg/m3 N/A N/A N/A 24.11 °C 72.94 % 1,013.83 mbar 1.22 m/s 200.07 Deg 42.12 µg/m3
2022-06-21 06:00 90.11 µg/m3 1.17 µg/m3 N/A N/A N/A 23.06 °C 76.67 % 1,013.53 mbar 1.53 m/s 214.33 Deg 75.8 µg/m3
2022-06-21 05:00 58 µg/m3 -0.31 µg/m3 N/A N/A N/A 23.03 °C 76.38 % 1,013.36 mbar 1.37 m/s 203.11 Deg 4.73 µg/m3
2022-06-21 04:00 50.05 µg/m3 -0.65 µg/m3 N/A N/A N/A 23.22 °C 75.23 % 1,013.34 mbar 1.41 m/s 201.75 Deg 7.08 µg/m3
2022-06-21 03:00 29.67 µg/m3 0.67 µg/m3 N/A N/A N/A 23.57 °C 74.26 % 1,013.80 mbar 1.43 m/s 205.26 Deg 0.29 µg/m3
2022-06-21 02:00 52.58 µg/m3 -0.33 µg/m3 N/A N/A N/A 23.93 °C 73.13 % 1,013.89 mbar 1.32 m/s 231.05 Deg 5.8 µg/m3
2022-06-21 01:00 25.8 µg/m3 0.39 µg/m3 N/A N/A N/A 24.59 °C 73.09 % 1,014.16 mbar 1.01 m/s 271.41 Deg 0.83 µg/m3
2022-06-21 00:00 40.78 µg/m3 1.35 µg/m3 N/A N/A N/A 24.88 °C 72.65 % 1,014.51 mbar 0.77 m/s 286.68 Deg 2.09 µg/m3
2022-06-20 23:00 47.46 µg/m3 0.77 µg/m3 N/A N/A N/A 24.98 °C 70.48 % 1,014.81 mbar 0.79 m/s 306.73 Deg 5.02 µg/m3
2022-06-20 22:00 9.7 µg/m3 0.05 µg/m3 N/A N/A N/A 25.12 °C 69.43 % 1,014.73 mbar 0.61 m/s 325.84 Deg 0.39 µg/m3
2022-06-20 21:00 11.24 µg/m3 0.23 µg/m3 N/A N/A N/A 25.2 °C 71.66 % 1,014.36 mbar 0.73 m/s 336.83 Deg 0.19 µg/m3
2022-06-20 20:00 12.84 µg/m3 0.92 µg/m3 N/A N/A N/A 25.78 °C 64.84 % 1,013.88 mbar 1.31 m/s 332.42 Deg 1.07 µg/m3
2022-06-20 19:00 21.92 µg/m3 0.95 µg/m3 N/A N/A N/A 26.52 °C 64.41 % 1,013.68 mbar 2.25 m/s 215.65 Deg 2.63 µg/m3
2022-06-20 18:00 23.66 µg/m3 1.27 µg/m3 N/A N/A N/A 28.42 °C 55.16 % 1,013.59 mbar 1.11 m/s 237.08 Deg 4.09 µg/m3
2022-06-20 17:00 11.22 µg/m3 1.09 µg/m3 N/A N/A N/A 28.69 °C 54.64 % 1,013.46 mbar 0.83 m/s 264.39 Deg 1.45 µg/m3
2022-06-20 16:00 7.51 µg/m3 1.31 µg/m3 N/A N/A N/A 27.63 °C 61.49 % 1,013.64 mbar 0.84 m/s 253.95 Deg 1.24 µg/m3
2022-06-20 15:00 11.97 µg/m3 0.87 µg/m3 N/A N/A N/A 27.29 °C 63.39 % 1,013.89 mbar 0.86 m/s 207.9 Deg 1.34 µg/m3
2022-06-20 14:00 45.53 µg/m3 1.12 µg/m3 N/A N/A N/A 27.15 °C 64.02 % 1,014.08 mbar 0.77 m/s 229.8 Deg 32.77 µg/m3
2022-06-20 13:00 33.18 µg/m3 1.27 µg/m3 N/A N/A N/A 27.24 °C 54.59 % 1,014.16 mbar 0.7 m/s 304.25 Deg 19.73 µg/m3
2022-06-20 12:00 62.49 µg/m3 1.23 µg/m3 N/A N/A N/A 26.89 °C 52.96 % 1,014.32 mbar 0.81 m/s 248.59 Deg 82.32 µg/m3
2022-06-20 11:00 25.87 µg/m3 1.04 µg/m3 N/A N/A N/A 25.59 °C 62.31 % 1,014.45 mbar 0.92 m/s 244.51 Deg 5.38 µg/m3
2022-06-20 10:00 26.12 µg/m3 1.12 µg/m3 N/A N/A N/A 25.12 °C 74.27 % 1,014.36 mbar 0.62 m/s 268.66 Deg 2.71 µg/m3
2022-06-20 09:00 0 µg/m3 1.52 µg/m3 N/A N/A N/A 24.85 °C 77.98 % 1,014.15 mbar 0.53 m/s 278.21 Deg 0 µg/m3
2022-06-20 08:00 40.36 µg/m3 0.74 µg/m3 N/A N/A N/A 24.54 °C 76.75 % 1,013.87 mbar 0.62 m/s 213.19 Deg 6.46 µg/m3
2022-06-20 07:00 78.16 µg/m3 1.25 µg/m3 N/A N/A N/A 23.54 °C 81.24 % 1,013.29 mbar 0.62 m/s 236.07 Deg 73.85 µg/m3
2022-06-20 06:00 50.41 µg/m3 1.23 µg/m3 N/A N/A N/A 22.96 °C 85.07 % 1,012.79 mbar 0.41 m/s 273.47 Deg 13.68 µg/m3
2022-06-20 05:00 6.79 µg/m3 1.07 µg/m3 N/A N/A N/A 23.14 °C 84.72 % 1,012.47 mbar 0.19 m/s 276.73 Deg 0.14 µg/m3
2022-06-20 04:00 9.57 µg/m3 0.49 µg/m3 N/A N/A N/A 23.19 °C 84.41 % 1,012.32 mbar 0.25 m/s 287.83 Deg 0.58 µg/m3
2022-06-20 03:00 7.87 µg/m3 0.82 µg/m3 N/A N/A N/A 23.28 °C 83.31 % 1,012.49 mbar 0.52 m/s 71.88 Deg 0.1 µg/m3
2022-06-20 02:00 27.03 µg/m3 1.01 µg/m3 N/A N/A N/A 23.11 °C 84.89 % 1,012.69 mbar 0.58 m/s 233.45 Deg 0.23 µg/m3
2022-06-20 01:00 18.4 µg/m3 0.92 µg/m3 N/A N/A N/A 23.27 °C 89.11 % 1,013.01 mbar 0.54 m/s 168.06 Deg 0.28 µg/m3
2022-06-20 00:00 13.54 µg/m3 1.14 µg/m3 N/A N/A N/A 23.5 °C 87.45 % 1,013.23 mbar 0.31 m/s 94.69 Deg 0.35 µg/m3
2022-06-19 23:00 4.94 µg/m3 -5.12 µg/m3 N/A N/A N/A 23.74 °C 86.02 % 1,013.39 mbar 0.32 m/s 174 Deg 0.25 µg/m3
2022-06-19 22:00 6.42 µg/m3 1.55 µg/m3 N/A N/A N/A 24.12 °C 82.22 % 1,013.34 mbar 0.31 m/s 307.85 Deg 0.4 µg/m3
2022-06-19 21:00 18.79 µg/m3 1.64 µg/m3 N/A N/A N/A 24.75 °C 77.93 % 1,013.06 mbar 0.67 m/s 244.29 Deg 0.95 µg/m3
2022-06-19 20:00 18.66 µg/m3 1.51 µg/m3 N/A N/A N/A 25.36 °C 71.6 % 1,012.60 mbar 0.81 m/s 200.38 Deg 1.03 µg/m3
2022-06-19 19:00 13.63 µg/m3 1.65 µg/m3 N/A N/A N/A 26.64 °C 62.68 % 1,012.36 mbar 0.85 m/s 234.56 Deg 0.99 µg/m3
2022-06-19 18:00 9.98 µg/m3 1.91 µg/m3 N/A N/A N/A 27.35 °C 58.67 % 1,012.14 mbar 0.98 m/s 244.11 Deg 1.34 µg/m3
2022-06-19 17:00 9.22 µg/m3 1.83 µg/m3 N/A N/A N/A 27.87 °C 56.46 % 1,012.28 mbar 0.94 m/s 193.76 Deg 1.74 µg/m3
2022-06-19 16:00 6.11 µg/m3 1.8 µg/m3 N/A N/A N/A 27.44 °C 60.98 % 1,012.50 mbar 0.96 m/s 263.99 Deg 0.92 µg/m3
2022-06-19 15:00 4.52 µg/m3 1.66 µg/m3 N/A N/A N/A 26.79 °C 66.21 % 1,012.95 mbar 0.89 m/s 246.78 Deg 0.97 µg/m3
2022-06-19 14:00 5.03 µg/m3 1.22 µg/m3 N/A N/A N/A 26.14 °C 71.96 % 1,013.31 mbar 0.99 m/s 280.79 Deg 1.12 µg/m3
2022-06-19 13:00 3.52 µg/m3 0.72 µg/m3 N/A N/A N/A 25.75 °C 74.76 % 1,013.58 mbar 1.18 m/s 227.63 Deg 0.63 µg/m3
2022-06-19 12:00 15.36 µg/m3 0.84 µg/m3 N/A N/A N/A 25.58 °C 75.02 % 1,013.68 mbar 1.22 m/s 227.12 Deg 2.45 µg/m3
2022-06-19 11:00 10.11 µg/m3 0.81 µg/m3 N/A N/A N/A 25.58 °C 75.36 % 1,013.56 mbar 1.09 m/s 237.82 Deg 1.81 µg/m3

It is to be noted that the data is provisional and subject to quality assurance procedures. For validated data kindly refer your request to contact.air@era.org.mt